Simultaneous Nadir Overpasses (SNOs) Predictions

Prediction of SNOs between GOES-17 and METOP-B Satellite Orbit:

Table of predicted SNOs for the next 14.0 days since TLE Epoch: 6/1/2024
Index Date Time (GOES-17) GOES-17 Lat,Lon METOP-B Lat,Lon Distance(km) Time Diff (sec)
1 06/02/2024 04:19:18 -0.01,-104.71 0.05,-104.56 17.51 80
2 06/03/2024 16:38:04 0.01,-104.72 0.99,-109.11 499.95 80
3 06/04/2024 16:20:01 0.01,-104.73 -0.12,-104.11 70.06 80
4 06/06/2024 04:38:58 -0.01,-104.71 -0.88,-108.71 454.17 80
5 06/07/2024 04:15:35 -0.01,-104.72 0.24,-103.71 115.73 80
6 06/08/2024 16:37:02 0.00,-104.73 0.79,-108.26 401.86 80
7 06/09/2024 16:13:39 -0.01,-104.73 -0.33,-103.26 167.99 80
8 06/11/2024 04:35:15 0.02,-104.72 -0.65,-107.85 355.99 80
9 06/12/2024 04:11:53 0.03,-104.73 0.47,-102.86 214.23 80
10 06/13/2024 16:33:19 -0.03,-104.75 0.55,-107.41 302.57 80
11 06/14/2024 16:09:57 -0.04,-104.76 -0.58,-102.41 267.99 80
